Powrót do katalogu

ATLAS 5 CENTAUR DEB

AktywnyHEO
NORAD 43988·DEBRIS·🇺🇸 United States

Wystrzelony Sep 17, 2014 z Cape Canaveral Space Force Station

Loading…

Następne Przeloty (najbliższe 24 godziny)

TLE

ŚwieżeSource: Space-Track

Epoka: Sep 14, 2026, 00:43 UTC

1 43988U 14055AT  26257.03001901 -.00000114  00000-0  00000-0 0  9990
2 43988  20.3627 129.8940 4725966 190.5157 154.4060  1.87317249 55028

Śledź ATLAS 5 CENTAUR DEB w czasie rzeczywistym z AllMySat

Download on the App Store